Regional Weather Roundup
Issued by NWS

Home | Current Version | Previous Version | Text Only | Print | Product List | Glossary On
Versions: 1 2 3 4 5 6 7 8 9 10 11 12 13 14 15 16 17 18 19 20 21 22 23 24 25 26 27 28 29 30 31 32 33 34 35 36 37 38 39 40 41 42 43 44 45 46 47 48 49 50
000
ASUS43 KMPX 231810
RWRMN
WEATHER ROUNDUP FOR MINNESOTA
NATIONAL WEATHER SERVICE TWIN CITIES/CHANHASSEN MN
1200 PM CST SUN NOV 23 2014


NOTE: "FAIR" INDICATES FEW OR NO CLOUDS BELOW 12,000 FEET WITH NO
SIGNIFICANT WEATHER AND/OR OBSTRUCTIONS TO VISIBILITY. N/A MEANS
CURRENT SKY AND/OR WEATHER CONDITIONS ARE NOT AVAILABLE.

MNZ060>063-068>070-231900-
   Twin Cities Metro

CITY           SKY/WX    TMP DP  RH WIND       PRES   REMARKS
TWIN CITIES    CLOUDY    47  46  97 NW7       29.42F FOG
6HR MIN TEMP:  47; 6HR MAX TEMP:  50; 6HR PCP: TRACE;

ST PAUL        FOG       45  45 100 CALM      29.43F VSB<1/4
CRYSTAL        CLOUDY    44  41  89 NW6       29.41F
BLAINE         CLOUDY    46  46 100 W6        29.43S FOG
LAKEVILLE      DRZL/FOG  48  48 100 CALM      29.42S VSB 1
EDEN PRAIRIE   CLOUDY    49  45  86 NW6       29.41S
6HR MIN TEMP:  49; 6HR MAX TEMP:  50;

SOUTH ST PAUL  FOG       50  49  96 CALM      29.42F VSB 1/2
LAKE ELMO      LGT RAIN  46  46 100 CALM      29.43F VSB<1/4
$$
MNZ001>005-007-008-013>017-022>024-027-028-231900-
   Northwest Minnesota

CITY           SKY/WX    TMP DP  RH WIND       PRES   REMARKS
BEMIDJI        CLOUDY    36  33  88 S3        29.40F
HALLOCK        CLOUDY    30  28  93 N14       29.40F WCI  20
ROSEAU         DRIZZLE   37  32  81 S6        29.38S
WARROAD        CLOUDY    36  32  87 SW5       29.39S FOG
THIEF RVR FALL CLOUDY    37  34  87 SW9       29.40S
CROOKSTON      PTSUNNY   41  36  81 SW7       29.41S
FOSSTON        CLOUDY    36  32  87 S8        29.41F
DETROIT LAKES  CLOUDY    37  34  87 W3        29.44S
MOORHEAD       CLOUDY    43  39  87 W12       29.45S
PARK RAPIDS    CLOUDY    40  35  83 W6        29.41F
MAHNOMEN       CLOUDY    37  35  92 SW8       29.42F
$$
MNZ006-009>011-018-025>026-231900-
   North Central Minnesota

CITY           SKY/WX    TMP DP  RH WIND       PRES   REMARKS
BAUDETTE       CLOUDY    35  33  92 S6        29.38S FOG     WCI  30
FLAG ISLAND    FOG       34  32  93 SE8       29.37F VSB 1/4 WCI  27
INTL FALLS     CLOUDY    36  33  89 S3        29.41R
6HR MIN TEMP:  32; 6HR MAX TEMP:  36;

WASKISH        CLOUDY    36  36 100 SW3       29.39F FOG
BIG FORK       CLOUDY    36  36 100 SW3       29.41F FOG
LONGVILLE      CLOUDY    36  36 100 SW6       29.42S FOG
GRAND RAPIDS   CLOUDY    36  34  93 SW5       29.41S
CRANE LAKE     CLOUDY    36  34  93 W3        29.43S
ORR            CLOUDY    36  32  87 CALM      29.38F
COOK           CLOUDY    36  36 100 CALM      29.40F FOG
WALKER         CLOUDY    37  33  85 W5        29.40F
$$
MNZ012-019>021-037-231900-
   Northeast Minnesota

CITY           SKY/WX    TMP DP  RH WIND       PRES   REMARKS
DULUTH         CLOUDY    39  37  92 W5        29.40F FOG
6HR MIN TEMP:  35; 6HR MAX TEMP:  39;

ELY            CLOUDY    37  37 100 SW3       29.39S FOG
HIBBING        CLOUDY    37  34  89 VRB3      29.39F FOG
EVELETH        CLOUDY    36  36 100 SW5       29.40F FOG
DULUTH HARBOR  FOG       37  36  93 CALM      29.43F VSB<1/4
TWO HARBORS    HAZE      43  37  81 CALM      29.39F VSB<1/4
SILVER BAY     FOG       41  39  93 CALM      29.39F VSB<1/4
GRAND MARAIS     N/A     41  40  96 CALM      29.42F
G MARAIS ARPRT FOG       37  36  93 CALM      29.40F VSB 1/2
$$
MNZ029>031-032-039>041-046>048-054>057-064-231900-
   West Central Minnesota

CITY           SKY/WX    TMP DP  RH WIND       PRES   REMARKS
FERGUS FALLS   CLOUDY    37  37 100 SW7       29.48F
WHEATON        CLOUDY    37  34  87 W10       29.50F
MORRIS           N/A     37  36  93 W10       29.47S
ALEXANDRIA     CLOUDY    37  33  85 W10       29.46S
ELBOW LAKE       N/A     36  36  99 W7        29.47S
WADENA         CLOUDY    37  34  87 W5        29.43F
GLENWOOD       LGT RAIN  36  34  93 SW7       29.47R
APPLETON       RAIN      37  36  93 W6        29.49F
BENSON         LGT RAIN  36  36 100 NW5       29.49S
ORTONVILLE     DRIZZLE   39  34  81 W8        29.49F
MADISON        DRIZZLE   41  39  93 W9        29.50S
WILLMAR        MIX PCPN  37  34  87 NW12      29.46F
$$
MNZ033>034-036-042>043-049>051-058-059-231900-
   Central Minnesota

CITY           SKY/WX    TMP DP  RH WIND       PRES   REMARKS
ST CLOUD       CLOUDY    38  34  85 NW8       29.42F
6HR MIN TEMP:  36; 6HR MAX TEMP:  40; 6HR PCP:  0.01;

SAUK CENTRE    DRIZZLE   36  34  92 W5        29.46S
PAYNESVILLE    CLOUDY    35  33  90 W7        29.45F WCI  29
AITKIN         MIX PCPN  39  36  87 SW5       29.41S
PINE RIVER     CLOUDY    37  37 100 SW5       29.46F FOG
BRAINERD       LGT RAIN  36  35  96 W5        29.43F FOG
STAPLES        CLOUDY    37  36  93 W5        29.44S
LONG PRAIRIE   MIX PCPN  36  34  93 CALM      29.45S
LITTLE FALLS   MIX PCPN  36  34  93 W3        29.45S
LITCHFIELD     LGT RAIN  39  39 100 W10       29.44F
BUFFALO        CLOUDY    40  38  96 W3        29.45R
MAPLE LAKE     DRIZZLE   38  38  99 W6        29.44F
$$
MNZ037-044-045-052-053-231900-
   East Central Minnesota

CITY           SKY/WX    TMP DP  RH WIND       PRES   REMARKS
PRINCETON      RAIN      39  37  93 NW5       29.42F
MORA           LGT RAIN  37  37 100 CALM      29.43F
CAMBRIDGE      DRIZZLE   43  36  75 W5        29.41F
RUSH CITY      CLOUDY    41  40  97 CALM      29.43F
MOOSE LAKE     CLOUDY    41  37  87 CALM      29.40F FOG
HINCKLEY       DRIZZLE   39  39 100 CALM      29.42F
CLOQUET        CLOUDY    39  37  93 SW3       29.41S FOG
MCGREGOR       CLOUDY    37  36  93 SW6       29.43S
$$
MNZ071>073-080-081-089-090-097-098-231900-
   Southwest Minnesota

CITY           SKY/WX    TMP DP  RH WIND       PRES   REMARKS
MONTEVIDEO     DRIZZLE   37  37 100 N9        29.49F
GRANITE FALLS  LGT RAIN  37  35  94 W10       29.50S
CANBY          DRIZZLE   39  37  90 W13       29.51F
MARSHALL       CLOUDY    39  36  87 NW17      29.50S
REDWOOD FALLS  LGT RAIN  41  38  89 W10       29.48R
OLIVIA         LGT RAIN  37  34  87 NW10      29.45S
PIPESTONE      LGT RAIN  37  36  93 NW15      29.51F
WINDOM         CLOUDY    45  39  81 NW15      29.46F
WORTHINGTON    CLOUDY    41  37  87 NW18G29   29.49S
JACKSON        CLOUDY    45  37  76 NW18      29.44S
TRACY          LGT RAIN  41  39  93 NW14G21   29.49F
SLAYTON        LGT RAIN  39  38  97 W17       29.50S
$$
MNZ065>067-074>077-082>085-091>093-231900-
   South Central Minnesota

CITY           SKY/WX    TMP DP  RH WIND       PRES   REMARKS
MANKATO        CLOUDY    48  43  81 NW8       29.42F
NEW ULM        CLOUDY    45  41  87 NW14      29.44F
ST JAMES       CLOUDY    46  39  76 NW16G22   29.45S
FAIRMONT       CLOUDY    48  43  81 NW13      29.42F
GLENCOE        CLOUDY    46  41  83 NW10      29.43F
FARIBAULT      DRZL/FOG  50  48  93 CALM      29.42F VSB 1/2
OWATONNA       DRIZZLE   50  48  93 S8        29.42F
WASECA         DRZL/FOG  48  45  87 SW6       29.43F VSB 3/4
ALBERT LEA     DRZL/FOG  50  50 100 S7        29.41F VSB 3/4
$$
MNZ078>079-086>088-094>096-231900-
   Southeast Minnesota

CITY           SKY/WX    TMP DP  RH WIND       PRES   REMARKS
ROCHESTER      FOG       50  49  96 S13       29.44F VSB 1/4
6HR MIN TEMP:  48; 6HR MAX TEMP:  50; 6HR PCP:  0.01;

RED WING         N/A     52  48  87 S3        29.42F FOG
STANTON        LGT RAIN  51  49  93 S5        29.41S
DODGE CENTER   FOG       50  48  93 S12       29.42F VSB 1
WINONA         CLOUDY    54  52  94 S6        29.46F FOG
AUSTIN         CLOUDY    48  48 100 S7        29.42F FOG
PRESTON        FOG       48  47  97 S9G17     29.45F VSB<1/4
$$
ABBREVIATIONS USED IN REMARKS
   TC - TEMPERATURES IN CELSIUS
  WCI - WIND CHILL INDEX
   HX - HEAT INDEX
  VSB - VISIBILITY
$$


USA.gov is the U.S. government's official web portal to all federal, state and local government web resources and services.